Fernwood, MS

4:42 PM CST on December 02, 2016 (GMT -0600)
McComb-Pike County-Lewis

Weather History for KMCB - September, 2013

Change the Weather History Date:

Saturday, September 21, 2013

  Actual Average Record
Temperature  
Mean Temperature 74 °F -  
Max Temperature 78 °F 87 °F 97 °F (1980)
Min Temperature 69 °F 64 °F 50 °F (1983)
Cooling Degree Days 8    
Growing Degree Days 24 (Base 50)    
Moisture  
Dew Point 71 °F    
Average Humidity 96    
Maximum Humidity 100    
Minimum Humidity 84    
Precipitation  
Precipitation 2.83 in - - ()
Sea Level Pressure  
Sea Level Pressure 29.79 in    
Wind  
Wind Speed 5 mph (East)    
Max Wind Speed 15 mph    
Max Gust Speed 25 mph    
Visibility 5 miles    
Events Rain , Thunderstorm    
Averages and records for this station are not official NWS values.
T = Trace of Precipitation, MM = Missing Value Source: NWS Daily Summary

Daily Weather History Graph

Daily Weather History Graph

Search for Another Location

Airport or City:

Trip Planner

Search our weather history database for the weather conditions in past years. The results will help you decide how hot, cold, wet, or windy it might be!

Date:

Astronomy

Sep. 21, 2013 Rise Set
Actual Time 6:49 AM CDT 6:59 PM CDT
Civil Twilight 6:25 AM CDT 7:23 PM CDT
Nautical Twilight 5:57 AM CDT 7:51 PM CDT
Astronomical Twilight 5:28 AM CDT 8:20 PM CDT
Moon 8:23 PM CDT (9/21) 8:56 AM CDT (9/21)
Length of Visible Light 12h 58m
Length of Day
12h 09m
Waning Gibbous, 94% of the Moon is Illuminated
Sep 21
Waning Gibbous
Sep 26
Last Quarter
Oct 4
New
Oct 11
First Quarter
Oct 18
Full

Hourly Weather History & Observations

Time (CDT) Temp. Dew Point Humidity Pressure Visibility Wind Dir Wind Speed Gust Speed Precip Events Conditions
12:53 AM 78.1 °F 75.9 °F 93% 29.79 in 10.0 mi South 6.9 mph - N/A   Scattered Clouds
12:59 AM 78.8 °F 75.2 °F 89% 29.81 in 10.0 mi South 9.2 mph - N/A   Mostly Cloudy
1:53 AM 77.0 °F 75.9 °F 96% 29.79 in 6.0 mi SSE 5.8 mph - 0.03 in Rain Rain
2:01 AM 77.0 °F 75.2 °F 94% 29.81 in 7.0 mi SSE 4.6 mph - 0.00 in Rain Light Rain
2:20 AM 77.0 °F 75.2 °F 94% 29.81 in 7.0 mi South 3.5 mph - 0.02 in Rain , Thunderstorm Light Rain
2:53 AM 77.0 °F 75.9 °F 96% 29.78 in 4.0 mi South 8.1 mph - 0.09 in Rain , Thunderstorm Rain
3:05 AM 73.4 °F 73.4 °F 100% 29.81 in 1.8 mi WNW 15.0 mph 21.9 mph 0.16 in Rain , Thunderstorm Heavy Rain
3:16 AM 71.6 °F 71.6 °F 100% 29.81 in 0.8 mi West 12.7 mph 25.3 mph 0.47 in Rain , Thunderstorm Heavy Rain
3:25 AM 71.6 °F 71.6 °F 100% 29.79 in 1.0 mi NW 6.9 mph - 0.64 in Rain , Thunderstorm Heavy Rain
3:34 AM 71.6 °F 71.6 °F 100% 29.81 in 2.0 mi SW 3.5 mph - 0.69 in Rain , Thunderstorm Heavy Rain
3:38 AM 71.6 °F 71.6 °F 100% 29.81 in 3.0 mi SSW 3.5 mph - 0.70 in Rain , Thunderstorm Thunderstorms and Rain
3:51 AM 71.6 °F 71.6 °F 100% 29.83 in 1.8 mi South 5.8 mph - 0.82 in Rain , Thunderstorm Heavy Thunderstorms and Rain
3:53 AM 72.0 °F 71.1 °F 97% 29.81 in 1.5 mi South 4.6 mph - 0.86 in Rain , Thunderstorm Heavy Thunderstorms and Rain
4:00 AM 71.6 °F 71.6 °F 100% 29.83 in 1.2 mi South 3.5 mph - 0.07 in Rain , Thunderstorm Heavy Thunderstorms and Rain
4:12 AM 71.6 °F 71.6 °F 100% 29.82 in 2.0 mi Calm Calm - 0.14 in Rain , Thunderstorm Heavy Rain
4:23 AM 71.6 °F 71.6 °F 100% 29.80 in 2.0 mi North 4.6 mph - 0.22 in Rain Heavy Rain
4:36 AM 71.6 °F 71.6 °F 100% 29.81 in 3.0 mi Calm Calm - 0.28 in Rain Heavy Rain
4:43 AM 71.6 °F 71.6 °F 100% 29.81 in 2.0 mi Calm Calm - 0.32 in Rain Heavy Rain
4:53 AM 72.0 °F 71.1 °F 97% 29.80 in 2.5 mi Calm Calm - 0.37 in Rain Heavy Rain
5:03 AM 71.6 °F 71.6 °F 100% 29.82 in 4.0 mi Calm Calm - 0.04 in Rain Rain
5:22 AM 71.6 °F 71.6 °F 100% 29.82 in 1.8 mi Calm Calm - 0.16 in Rain Heavy Rain
5:35 AM 71.6 °F 71.6 °F 100% 29.82 in 3.0 mi Calm Calm - 0.24 in Rain Heavy Rain
5:44 AM 71.6 °F 71.6 °F 100% 29.81 in 1.8 mi SE 3.5 mph - 0.33 in Rain Heavy Rain
5:53 AM 72.0 °F 71.1 °F 97% 29.78 in 1.8 mi ESE 4.6 mph - 0.43 in Rain Heavy Rain
6:01 AM 71.6 °F 71.6 °F 100% 29.79 in 2.0 mi ESE 3.5 mph - 0.08 in Rain Heavy Rain
6:16 AM 71.6 °F 71.6 °F 100% 29.79 in 4.0 mi Calm Calm - 0.15 in Rain Rain
6:37 AM 71.6 °F 71.6 °F 100% 29.80 in 4.0 mi Calm Calm - 0.20 in Rain Rain
6:53 AM 72.0 °F 71.1 °F 97% 29.78 in 7.0 mi SSE 5.8 mph - 0.22 in Rain Light Rain
7:24 AM 71.6 °F 71.6 °F 100% 29.80 in 5.0 mi SSE 4.6 mph - 0.06 in Rain Rain
7:53 AM 72.0 °F 72.0 °F 100% 29.79 in 4.0 mi South 4.6 mph - 0.16 in Rain Rain
8:53 AM 73.0 °F 72.0 °F 96% 29.78 in 8.0 mi SSE 4.6 mph - 0.05 in Rain Light Rain
9:33 AM 73.4 °F 73.4 °F 100% 29.81 in 10.0 mi South 3.5 mph - 0.00 in Rain Light Rain
9:53 AM 73.0 °F 72.0 °F 96% 29.80 in 10.0 mi South 3.5 mph - 0.01 in Rain Light Rain
10:53 AM 73.9 °F 73.0 °F 97% 29.80 in 10.0 mi SSW 4.6 mph - 0.00 in   Overcast
11:53 AM 75.0 °F 73.0 °F 94% 29.79 in 10.0 mi Calm Calm - 0.00 in   Overcast
12:13 PM 75.2 °F 73.4 °F 94% 29.80 in 10.0 mi Calm Calm - N/A   Overcast
12:53 PM 77.0 °F 72.0 °F 84% 29.78 in 10.0 mi Calm Calm - 0.00 in   Overcast
1:08 PM 75.2 °F 71.6 °F 89% 29.79 in 10.0 mi Variable 5.8 mph - N/A   Overcast
1:16 PM 73.4 °F 71.6 °F 94% 29.79 in 1.8 mi North 5.8 mph - 0.08 in Rain Heavy Rain
1:39 PM 73.4 °F 71.6 °F 94% 29.79 in - North - - 0.21 in   Unknown
1:53 PM 73.0 °F 71.1 °F 93% 29.77 in 2.0 mi Calm Calm - 0.24 in Rain Rain
2:00 PM 73.4 °F 71.6 °F 94% 29.79 in 1.2 mi North 4.6 mph - 0.04 in Rain Heavy Rain
2:14 PM 73.4 °F 71.6 °F 94% 29.79 in 2.0 mi North 10.4 mph 17.3 mph 0.09 in Rain Light Rain
2:23 PM 71.6 °F 69.8 °F 94% 29.78 in 5.0 mi North 10.4 mph - 0.10 in Rain Light Rain
2:31 PM 71.6 °F 69.8 °F 94% 29.79 in 2.5 mi North 8.1 mph - 0.11 in Rain Rain
2:35 PM 71.6 °F 69.8 °F 94% 29.79 in 1.8 mi North 6.9 mph - 0.12 in Rain Rain
2:42 PM 71.6 °F 69.8 °F 94% 29.78 in 1.8 mi North 10.4 mph - 0.13 in Rain Rain
2:48 PM 71.6 °F 69.8 °F 94% 29.78 in 2.0 mi NNE 12.7 mph 18.4 mph 0.13 in Rain Light Rain
2:53 PM 72.0 °F 69.1 °F 91% 29.77 in 2.0 mi NNE 12.7 mph 18.4 mph 0.14 in Rain Rain
3:03 PM 71.6 °F 69.8 °F 94% 29.78 in 3.0 mi NNE 9.2 mph - 0.01 in Rain Light Rain
3:45 PM 71.6 °F 69.8 °F 94% 29.78 in 5.0 mi NNE 8.1 mph 19.6 mph 0.02 in Rain Light Rain
3:53 PM 71.1 °F 70.0 °F 96% 29.76 in 5.0 mi North 6.9 mph - 0.02 in Rain Light Rain
4:12 PM 71.6 °F 69.8 °F 94% 29.78 in 4.0 mi NNE 6.9 mph - 0.00 in Rain Light Rain
4:45 PM 71.6 °F 69.8 °F 94% 29.77 in 5.0 mi NNE 5.8 mph - 0.01 in Rain Light Rain
4:53 PM 71.1 °F 69.1 °F 93% 29.76 in 5.0 mi NNE 9.2 mph - 0.02 in Rain Light Rain
5:53 PM 69.1 °F 68.0 °F 96% 29.76 in 4.0 mi Variable 6.9 mph - 0.02 in Rain Light Rain
6:53 PM 69.1 °F 66.9 °F 93% 29.77 in 5.0 mi Variable 4.6 mph - 0.03 in Rain Light Rain
7:04 PM 69.8 °F 66.2 °F 88% 29.78 in 5.0 mi NE 8.1 mph - 0.00 in Rain Light Rain
7:53 PM 69.1 °F 66.9 °F 93% 29.78 in 10.0 mi NE 4.6 mph - 0.05 in Rain Light Rain
8:53 PM 69.1 °F 68.0 °F 96% 29.79 in 10.0 mi NE 3.5 mph - 0.01 in Rain Light Rain
9:53 PM 70.0 °F 68.0 °F 93% 29.80 in 10.0 mi Variable 3.5 mph - 0.05 in Rain Light Rain
10:53 PM 70.0 °F 68.0 °F 93% 29.81 in 10.0 mi Calm Calm - 0.03 in Rain Light Rain
11:49 PM 69.8 °F 68.0 °F 94% 29.82 in 10.0 mi Calm Calm - 0.00 in   Overcast
11:53 PM 70.0 °F 68.0 °F 93% 29.80 in 10.0 mi NNE 3.5 mph - 0.00 in   Overcast